Location: ????????
(55.6333°N, 37.7000°E)
Time: 15:10:25
(UTC+00:00)

Cosmos 1766 - Pass Details

Date: 19 May 2025
Orbit: 443 x 457 km, 82.5° (Epoch: 20 June)

Event Time Altitude Azimuth Distance (km) Brightness Sun altitude
Rises 19:52:15 0° 351° (N) 2,470 8.4 -11.8°
Reaches altitude 10° 19:54:23 10° 357° (N) 1,590 6.9 -12.0°
Maximum altitude 19:57:45 50° 74° (ENE) 583 3.4 -12.1°
Enters shadow 19:59:53 20° 143° (SE) 1,094 4.3 -12.2°
